St. Joseph, KS

9:22 PM CDT on March 24, 2017 (GMT -0500)
Rosecrans Memorial

Weather History for KSTJ - April, 2014

Change the Weather History Date:

Tuesday, April 15, 2014

  Actual Average Record
Temperature  
Mean Temperature 39 °F 54 °F  
Max Temperature 54 °F 66 °F 91 °F (2002)
Min Temperature 23 °F 42 °F 23 °F (2014)
Degree Days  
Heating Degree Days 26 12  
Month to date heating degree days 255 205  
Since 1 July heating degree days 6021 5198  
Cooling Degree Days 0 1  
Month to date cooling degree days 3 8  
Year to date cooling degree days 3 10  
Moisture  
Dew Point 25 °F    
Average Humidity 62    
Maximum Humidity 92    
Minimum Humidity 32    
Precipitation  
Precipitation 0.00 in 0.12 in 2.73 in (1945)
Month to date precipitation 2.04 1.53  
Year to date precipitation 3.27 5.27  
Sea Level Pressure  
Sea Level Pressure 30.15 in    
Wind  
Wind Speed 8 mph (SSW)    
Max Wind Speed 20 mph    
Max Gust Speed 27 mph    
Visibility 10 miles    
Events      
T = Trace of Precipitation, MM = Missing Value Source: NWS Daily Summary

Daily Weather History Graph

Daily Weather History Graph

Search for Another Location

Airport or City:

Trip Planner

Search our weather history database for the weather conditions in past years. The results will help you decide how hot, cold, wet, or windy it might be!

Date:

Astronomy

Apr. 15, 2014 Rise Set
Actual Time 6:42 AM CDT 7:57 PM CDT
Civil Twilight 6:14 AM CDT 8:25 PM CDT
Nautical Twilight 5:40 AM CDT 8:59 PM CDT
Astronomical Twilight 5:05 AM CDT 9:34 PM CDT
Moon 8:39 PM CDT (4/15) 6:50 AM CDT (4/15)
Length of Visible Light 14h 11m
Length of Day
13h 15m
Full, 100% of the Moon is Illuminated
Apr 15
Full
Apr 22
Last Quarter
Apr 29
New
May 6
First Quarter
May 14
Full

Hourly Weather History & Observations

Time (CDT) Temp. Windchill Dew Point Humidity Pressure Visibility Wind Dir Wind Speed Gust Speed Precip Events Conditions
12:53 AM 30.9 °F 27.5 °F 26.1 °F 82% 30.22 in 10.0 mi West 3.5 mph - N/A   Mostly Cloudy
1:53 AM 30.0 °F - 24.1 °F 79% 30.22 in 10.0 mi Calm Calm - N/A   Scattered Clouds
2:53 AM 28.0 °F - 23.0 °F 81% 30.22 in 10.0 mi Calm Calm - N/A   Clear
3:53 AM 28.9 °F 25.2 °F 24.1 °F 82% 30.22 in 10.0 mi SW 3.5 mph - N/A   Clear
4:53 AM 28.9 °F 25.2 °F 25.0 °F 85% 30.22 in 10.0 mi SSW 3.5 mph - N/A   Clear
5:53 AM 27.0 °F - 24.1 °F 89% 30.22 in 10.0 mi Calm Calm - N/A   Clear
6:53 AM 25.0 °F - 23.0 °F 92% 30.24 in 8.0 mi Calm Calm - N/A   Clear
7:53 AM 28.9 °F - 26.1 °F 89% 30.26 in 7.0 mi Calm Calm - N/A   Clear
8:53 AM 33.1 °F - 28.0 °F 82% 30.25 in 10.0 mi Calm Calm - N/A   Clear
9:53 AM 37.9 °F 34.4 °F 26.1 °F 62% 30.25 in 10.0 mi SW 4.6 mph - N/A   Clear
10:53 AM 42.1 °F 40.2 °F 21.9 °F 45% 30.24 in 10.0 mi Variable 3.5 mph - N/A   Clear
11:53 AM 45.0 °F 40.6 °F 19.9 °F 37% 30.23 in 10.0 mi WSW 8.1 mph - N/A   Clear
12:53 PM 45.0 °F 42.6 °F 19.0 °F 36% 30.20 in 10.0 mi West 4.6 mph - N/A   Clear
1:53 PM 48.0 °F - 21.0 °F 34% 30.18 in 10.0 mi South 8.1 mph - N/A   Clear
2:53 PM 50.0 °F - 23.0 °F 35% 30.14 in 10.0 mi South 9.2 mph - N/A   Clear
3:53 PM 52.0 °F - 24.1 °F 34% 30.12 in 10.0 mi SW 6.9 mph - N/A   Clear
4:53 PM 54.0 °F - 25.0 °F 33% 30.07 in 10.0 mi South 13.8 mph - N/A   Clear
5:53 PM 54.0 °F - 27.0 °F 35% 30.05 in 10.0 mi SSW 13.8 mph - N/A   Clear
6:53 PM 53.1 °F - 28.0 °F 38% 30.04 in 10.0 mi South 13.8 mph - N/A   Clear
7:53 PM 50.0 °F - 27.0 °F 41% 30.02 in 10.0 mi SSE 15.0 mph - N/A   Clear
8:53 PM 50.0 °F - 28.0 °F 43% 30.01 in 10.0 mi SSE 12.7 mph - N/A   Clear
9:53 PM 48.0 °F - 28.0 °F 46% 30.01 in 10.0 mi SSE 12.7 mph - N/A   Clear
10:53 PM 46.9 °F - 28.9 °F 50% 30.00 in 10.0 mi South 13.8 mph - N/A   Clear
11:53 PM 46.0 °F 39.0 °F 28.9 °F 51% 29.98 in 10.0 mi South 17.3 mph - N/A   Clear